When you browse on this site, cookies collect data to enhance your experience and personalize the content and advertising you see.
Visit our Privacy Policy to learn more. By continuing to use the site, you agree to this use of cookies and data.
  • In Deutschland
  • Länderverzeichnis
  • Für 7 Tage
  • Wassertemperatur
  • Wetterkarte
  • Widgets
  • user-avatar
    Anmelden

    Stündliche Wetter Kukawki

    Heute, 2 Juni, Dienstag

    Zeit Temperatur Niederschläge Wind Luftdruck Luftfeuchtigkeit
    00:00 +7°C° 0 mm 3 m/S 746 mmHg 86%
    01:00 +7°C° 0 mm 3 m/S 746 mmHg 88%
    02:00 +7°C° 0 mm 3 m/S 745 mmHg 90%
    03:00 +5°C° 0 mm 3 m/S 745 mmHg 91%
    04:00 +5°C° 0 mm 3 m/S 745 mmHg 91%
    05:00 +4°C° 0 mm 3 m/S 744 mmHg 92%
    06:00 +6°C° 0 mm 4 m/S 744 mmHg 85%
    07:00 +8°C° 0 mm 6 m/S 744 mmHg 77%
    08:00 +10°C° 0 mm 7 m/S 744 mmHg 70%
    09:00 +11°C° 0 mm 7 m/S 744 mmHg 68%
    10:00 +12°C° 0 mm 8 m/S 744 mmHg 66%
    11:00 +13°C° 0 mm 8 m/S 743 mmHg 63%
    12:00 +13°C° 0.1 mm 8 m/S 743 mmHg 66%
    13:00 +14°C° 0.1 mm 7 m/S 743 mmHg 69%
    14:00 +14°C° 0.1 mm 6 m/S 743 mmHg 72%
    15:00 +14°C° 0.2 mm 5 m/S 742 mmHg 73%
    16:00 +14°C° 0.2 mm 5 m/S 742 mmHg 74%
    17:00 +14°C° 0.2 mm 4 m/S 741 mmHg 76%
    18:00 +13°C° 0.2 mm 4 m/S 741 mmHg 79%
    19:00 +12°C° 0.2 mm 4 m/S 741 mmHg 82%
    20:00 +11°C° 0.2 mm 3 m/S 741 mmHg 85%
    21:00 +10°C° 0 mm 3 m/S 741 mmHg 86%
    22:00 +9°C° 0 mm 3 m/S 740 mmHg 88%
    23:00 +8°C° 0 mm 3 m/S 740 mmHg 90%

    Morgen, 3 Juni, Mittwoch

    Zeit Temperatur Niederschläge Wind Luftdruck Luftfeuchtigkeit
    00:00 +8°C° 0.1 mm 3 m/S 740 mmHg 90%
    01:00 +8°C° 0.1 mm 3 m/S 740 mmHg 91%
    02:00 +7°C° 0.1 mm 4 m/S 740 mmHg 91%
    03:00 +7°C° 0.3 mm 4 m/S 739 mmHg 92%
    04:00 +7°C° 0.3 mm 4 m/S 739 mmHg 93%
    05:00 +7°C° 0.3 mm 4 m/S 739 mmHg 93%
    06:00 +7°C° 0.3 mm 4 m/S 739 mmHg 93%
    07:00 +8°C° 0.3 mm 4 m/S 739 mmHg 93%
    08:00 +8°C° 0.3 mm 4 m/S 739 mmHg 93%
    09:00 +10°C° 0.1 mm 4 m/S 739 mmHg 88%
    10:00 +11°C° 0.1 mm 4 m/S 738 mmHg 84%
    11:00 +12°C° 0.1 mm 4 m/S 738 mmHg 79%
    12:00 +13°C° 0.5 mm 4 m/S 738 mmHg 77%
    13:00 +14°C° 0.5 mm 4 m/S 738 mmHg 75%
    14:00 +15°C° 0.5 mm 5 m/S 738 mmHg 72%
    15:00 +14°C° 0.6 mm 4 m/S 737 mmHg 73%
    16:00 +14°C° 0.6 mm 4 m/S 737 mmHg 75%
    17:00 +14°C° 0.6 mm 4 m/S 737 mmHg 76%
    18:00 +13°C° 0.4 mm 4 m/S 737 mmHg 80%
    19:00 +12°C° 0.4 mm 3 m/S 736 mmHg 85%
    20:00 +11°C° 0.4 mm 3 m/S 736 mmHg 89%
    21:00 +10°C° 0 mm 2 m/S 736 mmHg 91%
    22:00 +9°C° 0 mm 2 m/S 736 mmHg 92%
    23:00 +8°C° 0 mm 2 m/S 736 mmHg 94%

    übermorgen, 4 Juni, Donnerstag

    Zeit Temperatur Niederschläge Wind Luftdruck Luftfeuchtigkeit
    00:00 +8°C° 0 mm 2 m/S 736 mmHg 94%
    01:00 +7°C° 0 mm 2 m/S 736 mmHg 94%
    02:00 +8°C° 0 mm 1 m/S 736 mmHg 94%
    03:00 +7°C° 0 mm 2 m/S 735 mmHg 95%
    04:00 +7°C° 0 mm 2 m/S 735 mmHg 95%
    05:00 +7°C° 0 mm 2 m/S 735 mmHg 96%
    06:00 +8°C° 0 mm 2 m/S 735 mmHg 93%
    07:00 +10°C° 0 mm 2 m/S 735 mmHg 90%
    08:00 +12°C° 0 mm 2 m/S 735 mmHg 87%
    09:00 +13°C° 0.2 mm 2 m/S 735 mmHg 82%
    10:00 +14°C° 0.2 mm 2 m/S 735 mmHg 78%
    11:00 +16°C° 0.2 mm 2 m/S 735 mmHg 73%
    12:00 +16°C° 0.5 mm 3 m/S 735 mmHg 71%
    13:00 +17°C° 0.5 mm 3 m/S 735 mmHg 69%
    14:00 +18°C° 0.5 mm 4 m/S 734 mmHg 67%
    15:00 +18°C° 0.4 mm 3 m/S 734 mmHg 68%
    16:00 +18°C° 0.4 mm 3 m/S 734 mmHg 68%
    17:00 +18°C° 0.4 mm 3 m/S 734 mmHg 68%
    18:00 +17°C° 0.1 mm 2 m/S 734 mmHg 72%
    19:00 +16°C° 0.1 mm 1 m/S 734 mmHg 76%
    20:00 +14°C° 0.1 mm 0 m/S 734 mmHg 79%
    21:00 +14°C° 0 mm 1 m/S 734 mmHg 82%
    22:00 +13°C° 0 mm 2 m/S 734 mmHg 85%
    23:00 +12°C° 0 mm 2 m/S 734 mmHg 88%

    5 Juni, Freitag

    Zeit Temperatur Niederschläge Wind Luftdruck Luftfeuchtigkeit
    00:00 +12°C° 0 mm 2 m/S 734 mmHg 89%
    01:00 +10°C° 0 mm 2 m/S 734 mmHg 90%
    02:00 +10°C° 0 mm 3 m/S 733 mmHg 91%
    03:00 +10°C° 0 mm 3 m/S 733 mmHg 91%
    04:00 +9°C° 0 mm 3 m/S 733 mmHg 92%
    05:00 +8°C° 0 mm 4 m/S 733 mmHg 92%
    06:00 +11°C° 0 mm 4 m/S 733 mmHg 89%
    07:00 +13°C° 0 mm 5 m/S 733 mmHg 86%
    08:00 +15°C° 0 mm 6 m/S 733 mmHg 84%
    09:00 +16°C° 0 mm 6 m/S 733 mmHg 83%
    10:00 +17°C° 0 mm 6 m/S 733 mmHg 82%
    11:00 +19°C° 0 mm 6 m/S 733 mmHg 81%
    12:00 +19°C° 0.2 mm 5 m/S 732 mmHg 80%
    13:00 +20°C° 0.2 mm 5 m/S 732 mmHg 79%
    14:00 +20°C° 0.2 mm 5 m/S 732 mmHg 79%
    15:00 +20°C° 0.4 mm 5 m/S 732 mmHg 78%
    16:00 +21°C° 0.4 mm 5 m/S 732 mmHg 78%
    17:00 +22°C° 0.4 mm 5 m/S 732 mmHg 77%
    18:00 +21°C° 1.5 mm 5 m/S 732 mmHg 80%
    19:00 +20°C° 1.5 mm 5 m/S 732 mmHg 84%
    20:00 +19°C° 1.5 mm 4 m/S 732 mmHg 87%
    21:00 +18°C° 0.2 mm 4 m/S 732 mmHg 88%
    22:00 +17°C° 0.2 mm 4 m/S 732 mmHg 89%
    23:00 +15°C° 0.2 mm 4 m/S 733 mmHg 91%

    6 Juni, Samstag

    Zeit Temperatur Niederschläge Wind Luftdruck Luftfeuchtigkeit
    00:00 +15°C° 0 mm 4 m/S 733 mmHg 91%
    01:00 +15°C° 0 mm 4 m/S 733 mmHg 92%
    02:00 +14°C° 0 mm 3 m/S 733 mmHg 93%
    03:00 +14°C° 0.5 mm 4 m/S 733 mmHg 94%
    04:00 +14°C° 0.5 mm 4 m/S 733 mmHg 95%
    05:00 +13°C° 0.5 mm 4 m/S 734 mmHg 97%
    06:00 +13°C° 0.8 mm 5 m/S 734 mmHg 96%
    07:00 +12°C° 0.8 mm 5 m/S 734 mmHg 95%
    08:00 +10°C° 0.8 mm 6 m/S 734 mmHg 95%
    09:00 +10°C° 0 mm 6 m/S 735 mmHg 93%
    10:00 +10°C° 0 mm 6 m/S 735 mmHg 91%
    11:00 +11°C° 0 mm 6 m/S 736 mmHg 89%
    12:00 +13°C° 0 mm 6 m/S 736 mmHg 84%
    13:00 +14°C° 0 mm 6 m/S 737 mmHg 79%
    14:00 +15°C° 0 mm 6 m/S 737 mmHg 73%
    15:00 +15°C° 0 mm 5 m/S 737 mmHg 72%
    16:00 +16°C° 0 mm 5 m/S 737 mmHg 70%
    17:00 +17°C° 0 mm 4 m/S 738 mmHg 69%
    18:00 +16°C° 0 mm 3 m/S 738 mmHg 73%
    19:00 +15°C° 0 mm 2 m/S 738 mmHg 78%
    20:00 +14°C° 0 mm 1 m/S 739 mmHg 83%
    21:00 +13°C° 0 mm 1 m/S 739 mmHg 85%
    22:00 +12°C° 0 mm 1 m/S 739 mmHg 88%
    23:00 +11°C° 0 mm 1 m/S 739 mmHg 90%

    7 Juni, Sonntag

    Zeit Temperatur Niederschläge Wind Luftdruck Luftfeuchtigkeit
    00:00 +11°C° 0 mm 1 m/S 740 mmHg 91%
    01:00 +11°C° 0 mm 1 m/S 740 mmHg 91%
    02:00 +9°C° 0 mm 2 m/S 740 mmHg 91%
    03:00 +9°C° 0 mm 2 m/S 740 mmHg 91%
    04:00 +9°C° 0 mm 2 m/S 740 mmHg 91%
    05:00 +9°C° 0 mm 2 m/S 740 mmHg 91%
    06:00 +12°C° 0 mm 2 m/S 740 mmHg 86%
    07:00 +14°C° 0 mm 2 m/S 741 mmHg 80%
    08:00 +15°C° 0 mm 2 m/S 741 mmHg 75%
    09:00 +17°C° 0 mm 2 m/S 741 mmHg 69%
    10:00 +18°C° 0 mm 2 m/S 741 mmHg 64%
    11:00 +19°C° 0 mm 2 m/S 741 mmHg 58%
    12:00 +20°C° 0.1 mm 2 m/S 741 mmHg 58%
    13:00 +20°C° 0.1 mm 3 m/S 741 mmHg 57%
    14:00 +21°C° 0.1 mm 3 m/S 741 mmHg 57%
    15:00 +21°C° 0.1 mm 3 m/S 741 mmHg 57%
    16:00 +21°C° 0.1 mm 3 m/S 741 mmHg 58%
    17:00 +21°C° 0.1 mm 3 m/S 741 mmHg 59%
    18:00 +20°C° 0 mm 2 m/S 741 mmHg 64%
    19:00 +18°C° 0 mm 2 m/S 741 mmHg 69%
    20:00 +17°C° 0 mm 2 m/S 741 mmHg 75%
    21:00 +16°C° 0 mm 2 m/S 742 mmHg 76%
    22:00 +15°C° 0 mm 2 m/S 742 mmHg 78%
    23:00 +14°C° 0 mm 2 m/S 742 mmHg 80%
    Mehr zeigen